Date String (YYYY-MM-DD hh:mm:ss) UTC,Instrument flags,Ambient pressure (hPa),Sample flow (lpm),Bypass flow (lpm),Sample temperature (°C),Ambient temperature (°C),ASC tube jacket temperature (°C),LED temperature (°C),Box temperature (°C),Sample RH (%),Span deviation,Mass concentration (μg/m³),Mass concentration (μg/m³),Mass concentration (μg/m³)
DateTimeUTC,F1_M11,P_M11,Q1_M11,Q2_M11,T1_M11,T2_M11,T3_M11,T4_M11,T5_M11,U1_M11,ZSPAN_M11,X0_M11,X2_M11,X1_M11
2022-01-31 13:00:00,,0818.8,5.00,0.00,22.4,22.6,00.0,31.2,24.2,03.3,0000.0,0005.33,0002.20,0002.04
2022-01-31 13:01:00,,0818.7,5.00,0.00,22.4,22.4,00.0,31.2,24.2,04.0,0000.0,0004.43,0002.13,0001.97
2022-01-31 13:02:00,,0818.7,4.99,0.00,22.3,22.2,00.0,31.2,24.1,04.6,0000.0,0004.62,0002.30,0002.14
2022-01-31 13:03:00,,0818.7,5.00,0.00,22.3,22.0,00.0,31.2,24.0,03.7,0000.0,0004.40,0002.43,0002.27
2022-01-31 13:04:00,,0818.5,4.99,0.00,22.3,21.9,00.0,31.2,24.0,04.0,0000.0,0004.33,0002.50,0002.33
2022-01-31 13:05:00,,0818.5,5.02,0.00,22.2,21.8,00.0,31.2,23.9,03.3,0000.0,0003.84,0002.56,0002.38
2022-01-31 13:06:00,,0818.5,4.98,0.00,22.2,21.7,00.0,31.2,23.9,04.1,0000.0,0003.29,0002.69,0002.50
2022-01-31 13:07:00,,0818.4,4.99,0.00,22.2,21.6,00.0,31.2,23.9,04.3,0000.0,0003.57,0002.84,0002.61
2022-01-31 13:08:00,,0818.4,5.01,0.00,22.2,21.6,00.0,31.2,23.9,04.0,0000.0,0003.53,0002.76,0002.54
2022-01-31 13:09:00,,0818.4,4.99,0.00,22.2,21.5,00.0,31.2,23.8,03.4,0000.0,0003.64,0002.48,0002.30
2022-01-31 13:10:00,,0818.4,5.02,0.00,22.1,21.5,00.0,31.2,23.8,03.1,0000.0,0004.52,0002.33,0002.16
2022-01-31 13:11:00,,0818.5,4.98,0.00,22.1,21.5,00.0,31.2,23.8,03.6,0000.0,0004.48,0002.34,0002.17
2022-01-31 13:12:00,,0818.4,5.02,0.00,22.1,21.5,00.0,31.2,23.8,04.0,0000.0,0004.51,0002.37,0002.20
2022-01-31 13:13:00,,0818.4,4.99,0.00,22.1,21.4,00.0,31.2,23.8,02.9,0000.0,0004.28,0002.16,0002.00
2022-01-31 13:14:00,,0818.5,5.01,0.00,22.1,21.4,00.0,31.2,23.8,02.9,0000.0,0004.10,0001.96,0001.78
2022-01-31 13:15:00,,0818.5,4.99,0.00,22.1,21.4,00.0,31.2,23.8,03.3,0000.0,0004.11,0001.91,0001.71
2022-01-31 13:16:00,,0818.5,5.01,0.00,22.1,21.4,00.0,31.2,23.8,03.1,0000.0,0004.00,0001.85,0001.67
2022-01-31 13:17:00,,0818.5,4.98,0.00,22.1,21.4,00.0,31.1,23.8,03.1,0000.0,0003.90,0001.78,0001.61
2022-01-31 13:18:00,,0818.5,5.01,0.00,22.2,22.0,00.0,31.2,24.0,03.1,0000.0,0003.70,0001.68,0001.54
2022-01-31 13:19:00,,0818.8,4.99,0.00,22.3,22.9,00.0,31.2,24.3,02.5,0000.0,0003.64,0001.47,0001.36
2022-01-31 13:20:00,,0818.8,5.01,0.00,22.5,23.3,00.0,31.3,24.5,02.7,0000.0,0004.12,0001.35,0001.25
2022-01-31 13:21:00,,0818.8,5.00,0.00,22.5,23.1,00.0,31.3,24.5,02.8,0000.0,0002.85,0001.22,0001.14
2022-01-31 13:22:00,,0818.7,5.00,0.00,22.6,22.9,00.0,31.3,24.5,03.7,0000.0,0002.65,0001.13,0001.05
2022-01-31 13:23:00,,0818.8,5.00,0.00,22.6,22.7,00.0,31.3,24.4,03.3,0000.0,0002.50,0000.99,0000.91
2022-01-31 13:24:00,,0818.6,5.01,0.00,22.6,22.5,00.0,31.4,24.4,04.7,0000.0,0002.75,0001.11,0000.98
2022-01-31 13:25:00,,0818.5,5.00,0.00,22.5,22.4,00.0,31.4,24.4,04.5,0000.0,0003.11,0001.36,0001.20
2022-01-31 13:26:00,,0818.5,4.99,0.00,22.5,22.3,00.0,31.4,24.3,04.1,0000.0,0003.39,0001.51,0001.33
2022-01-31 13:27:00,,0818.5,5.01,0.00,22.5,22.2,00.0,31.4,24.3,04.4,0000.0,0003.98,0001.68,0001.46
2022-01-31 13:28:00,,0818.6,4.98,0.00,22.5,22.1,00.0,31.4,24.3,05.7,0000.0,0005.25,0002.00,0001.69
2022-01-31 13:29:00,,0818.7,5.01,0.00,22.5,22.0,00.0,31.4,24.3,05.8,0000.0,0006.56,0002.37,0002.00
2022-01-31 13:30:00,,0818.7,4.99,0.00,22.5,22.0,00.0,31.4,24.3,05.7,0000.0,0007.43,0002.87,0002.40
2022-01-31 13:31:00,,0818.7,5.00,0.00,22.5,21.9,00.0,31.4,24.2,05.9,0000.0,0007.15,0003.22,0002.77
2022-01-31 13:32:00,,0818.7,5.01,0.00,22.5,21.9,00.0,31.4,24.2,06.1,0000.0,0007.63,0003.50,0003.14
2022-01-31 13:33:00,,0818.7,4.98,0.00,22.4,21.9,00.0,31.4,24.2,05.9,0000.0,0008.07,0003.82,0003.40
2022-01-31 13:34:00,,0818.7,5.01,0.00,22.4,21.8,00.0,31.4,24.2,05.9,0000.0,0008.48,0004.08,0003.60
2022-01-31 13:35:00,,0818.8,4.99,0.00,22.4,21.8,00.0,31.4,24.1,06.2,0000.0,0008.86,0004.30,0003.78
2022-01-31 13:36:00,,0818.8,5.01,0.00,22.4,21.8,00.0,31.4,24.1,06.1,0000.0,0009.09,0004.43,0003.88
2022-01-31 13:37:00,,0818.8,4.99,0.00,22.4,21.7,00.0,31.4,24.1,06.0,0000.0,0009.48,0004.62,0004.04
2022-01-31 13:38:00,,0818.8,5.03,0.00,22.4,21.7,00.0,31.4,24.1,05.8,0000.0,0009.84,0004.81,0004.20
2022-01-31 13:39:00,,0818.7,5.00,0.00,22.4,21.7,00.0,31.4,24.1,05.8,0000.0,0009.48,0004.92,0004.32
2022-01-31 13:40:00,,0818.7,5.00,0.00,22.3,21.6,00.0,31.4,24.0,05.8,0000.0,0009.32,0005.01,0004.38
2022-01-31 13:41:00,,0818.6,5.00,0.00,22.3,21.6,00.0,31.4,24.0,05.7,0000.0,0009.16,0005.02,0004.42
2022-01-31 13:42:00,,0818.6,4.99,0.00,22.3,21.6,00.0,31.4,24.0,05.7,0000.0,0009.08,0005.05,0004.46
2022-01-31 13:43:00,,0818.7,5.02,0.00,22.3,21.6,00.0,31.3,24.0,05.5,0000.0,0009.06,0005.04,0004.48
2022-01-31 13:44:00,,0818.6,4.98,0.00,22.3,21.6,00.0,31.3,24.0,05.6,0000.0,0009.35,0005.01,0004.49
2022-01-31 13:45:00,,0818.6,5.02,0.00,22.3,21.6,00.0,31.3,24.0,05.4,0000.0,0009.30,0005.01,0004.52
2022-01-31 13:46:00,,0818.8,4.99,0.00,22.2,21.5,00.0,31.3,24.0,05.5,0000.0,0009.12,0005.00,0004.56
2022-01-31 13:47:00,,0818.5,5.00,0.00,22.2,21.5,00.0,31.3,23.9,05.3,0000.0,0008.96,0005.00,0004.59
2022-01-31 13:48:00,,0818.5,5.01,0.00,22.2,21.5,00.0,31.3,24.0,05.5,0000.0,0008.61,0004.95,0004.60
2022-01-31 13:49:00,,0818.5,4.99,0.00,22.2,21.6,00.0,31.3,24.0,05.5,0000.0,0008.23,0004.90,0004.59
2022-01-31 13:50:00,,0818.4,4.99,0.00,22.3,22.1,00.0,31.3,24.1,05.4,0000.0,0008.17,0004.88,0004.57
2022-01-31 13:51:00,,0818.5,5.00,0.00,22.4,22.9,00.0,31.4,24.4,04.3,0000.0,0007.83,0004.72,0004.47
2022-01-31 13:52:00,,0818.5,5.00,0.00,22.6,23.3,00.0,31.4,24.6,05.2,0000.0,0007.70,0004.67,0004.43
2022-01-31 13:53:00,,0818.5,5.00,0.00,22.6,23.0,00.0,31.4,24.6,05.3,0000.0,0007.65,0004.65,0004.42
2022-01-31 13:54:00,,0818.5,5.01,0.00,22.6,22.8,00.0,31.4,24.5,05.1,0000.0,0007.59,0004.65,0004.41
2022-01-31 13:55:00,,0818.5,5.01,0.00,22.6,22.6,00.0,31.4,24.4,05.0,0000.0,0006.99,0004.58,0004.37
2022-01-31 13:56:00,,0818.4,4.98,0.00,22.6,22.4,00.0,31.5,24.4,04.5,0000.0,0006.81,0004.51,0004.31
2022-01-31 13:57:00,,0818.5,5.00,0.00,22.6,22.3,00.0,31.5,24.3,04.2,0000.0,0006.73,0004.38,0004.18
2022-01-31 13:58:00,,0818.5,5.01,0.00,22.5,22.2,00.0,31.5,24.3,03.6,0000.0,0006.47,0004.21,0004.03
2022-01-31 13:59:00,,0818.4,5.00,0.00,22.5,22.0,00.0,31.5,24.2,03.6,0000.0,0006.14,0004.05,0003.87
